TimeCST,TemperatureF,Dew PointF,Humidity,Sea Level PressureIn,VisibilityMPH,Wind Direction,Wind SpeedMPH,Gust SpeedMPH,PrecipitationIn,Events,Conditions,WindDirDegrees,DateUTC
12:43 AM,19.4,17.6,93,29.33,10.0,WNW,12.7,-,N/A,,Overcast,300,2013-01-12 06:43:00
12:52 AM,19.4,17.6,93,29.33,10.0,WNW,10.4,-,N/A,,Overcast,290,2013-01-12 06:52:00
1:14 AM,19.4,17.6,93,29.34,5.0,West,10.4,16.1,N/A,,Overcast,280,2013-01-12 07:14:00
1:35 AM,17.6,17.6,100,29.36,7.0,West,12.7,-,N/A,,Overcast,270,2013-01-12 07:35:00
1:53 AM,17.6,17.6,100,29.37,10.0,West,11.5,18.4,N/A,,Overcast,280,2013-01-12 07:53:00
2:15 AM,17.6,15.8,93,29.39,10.0,West,17.3,21.9,N/A,Snow,Light Snow,280,2013-01-12 08:15:00
2:35 AM,15.8,14.0,93,29.41,4.0,West,16.1,23.0,N/A,,Overcast,280,2013-01-12 08:35:00
2:53 AM,15.8,12.2,86,29.42,5.0,West,13.8,18.4,N/A,Snow,Light Snow,280,2013-01-12 08:53:00
3:15 AM,14.0,12.2,93,29.43,7.0,WNW,18.4,23.0,N/A,,Overcast,290,2013-01-12 09:15:00
3:35 AM,12.2,10.4,92,29.44,1.5,WNW,16.1,25.3,N/A,Snow,Light Snow,290,2013-01-12 09:35:00
3:53 AM,12.2,10.4,92,29.45,2.0,WNW,15.0,24.2,N/A,Snow,Light Snow,290,2013-01-12 09:53:00
4:15 AM,12.2,8.6,85,29.47,5.0,WNW,16.1,25.3,N/A,Snow,Light Snow,290,2013-01-12 10:15:00
4:35 AM,10.4,8.6,92,29.49,3.0,WNW,15.0,23.0,N/A,Snow,Light Snow,290,2013-01-12 10:35:00
4:53 AM,8.6,6.8,92,29.51,2.0,West,15.0,21.9,N/A,Snow,Light Snow,280,2013-01-12 10:53:00
5:15 AM,8.6,6.8,92,29.53,2.5,West,15.0,21.9,N/A,Snow,Light Snow,280,2013-01-12 11:15:00
5:35 AM,8.6,5.0,85,29.55,3.0,West,15.0,21.9,N/A,Snow,Light Snow,280,2013-01-12 11:35:00
5:53 AM,6.8,3.2,85,29.56,4.0,WNW,15.0,24.2,N/A,Snow,Light Snow,290,2013-01-12 11:53:00
6:15 AM,6.8,3.2,85,29.59,5.0,West,13.8,23.0,N/A,Snow,Light Snow,280,2013-01-12 12:15:00
6:35 AM,6.8,1.4,79,29.61,4.0,West,12.7,18.4,N/A,Snow,Light Snow,280,2013-01-12 12:35:00
6:53 AM,5.0,1.4,85,29.62,5.0,West,15.0,21.9,N/A,Snow,Light Snow,280,2013-01-12 12:53:00
7:15 AM,5.0,1.4,85,29.65,7.0,WNW,17.3,23.0,N/A,,Overcast,290,2013-01-12 13:15:00
7:35 AM,3.2,-0.4,85,29.66,7.0,WNW,11.5,-,N/A,,Overcast,290,2013-01-12 13:35:00
8:15 AM,1.4,-2.2,85,29.68,7.0,WNW,13.8,-,N/A,,Overcast,290,2013-01-12 14:15:00
8:35 AM,1.4,-2.2,85,29.70,10.0,WNW,13.8,21.9,N/A,,Scattered Clouds,290,2013-01-12 14:35:00
8:53 AM,1.4,-2.2,85,29.72,10.0,WNW,11.5,19.6,N/A,,Scattered Clouds,290,2013-01-12 14:53:00
9:15 AM,1.4,-2.2,85,29.74,7.0,WNW,11.5,19.6,N/A,,Mostly Cloudy,290,2013-01-12 15:15:00
9:35 AM,1.4,-2.2,85,29.75,10.0,WNW,13.8,19.6,N/A,,Scattered Clouds,290,2013-01-12 15:35:00
9:53 AM,1.4,-4.0,78,29.76,10.0,WNW,17.3,21.9,N/A,,Scattered Clouds,300,2013-01-12 15:53:00
10:15 AM,1.4,-4.0,78,29.77,10.0,WNW,13.8,17.3,N/A,,Scattered Clouds,290,2013-01-12 16:15:00
10:35 AM,3.2,-2.2,78,29.79,7.0,WNW,11.5,-,N/A,,Mostly Cloudy,290,2013-01-12 16:35:00
11:15 AM,3.2,-2.2,78,29.80,7.0,WNW,17.3,21.9,N/A,,Mostly Cloudy,300,2013-01-12 17:15:00
12:15 PM,3.2,-4.0,72,29.83,10.0,West,10.4,17.3,N/A,,Mostly Cloudy,280,2013-01-12 18:15:00
12:35 PM,3.2,-4.0,72,29.85,7.0,West,12.7,19.6,N/A,,Overcast,280,2013-01-12 18:35:00
12:53 PM,1.4,-4.0,78,29.85,7.0,West,12.7,-,N/A,,Overcast,260,2013-01-12 18:53:00
1:35 PM,1.4,-4.0,78,29.87,7.0,WNW,15.0,18.4,N/A,,Mostly Cloudy,300,2013-01-12 19:35:00
1:53 PM,3.2,-5.8,66,29.88,7.0,West,10.4,-,N/A,,Mostly Cloudy,270,2013-01-12 19:53:00
2:15 PM,1.4,-5.8,72,29.89,7.0,West,12.7,-,N/A,,Mostly Cloudy,280,2013-01-12 20:15:00
2:35 PM,1.4,-5.8,72,29.90,5.0,WNW,13.8,19.6,N/A,,Haze,290,2013-01-12 20:35:00
2:53 PM,1.4,-5.8,72,29.90,10.0,WNW,15.0,23.0,N/A,,Scattered Clouds,300,2013-01-12 20:53:00
3:15 PM,-0.4,-5.8,78,29.91,10.0,WNW,11.5,20.7,N/A,,Clear,290,2013-01-12 21:15:00
3:35 PM,-0.4,-5.8,78,29.92,10.0,WNW,16.1,21.9,N/A,,Clear,300,2013-01-12 21:35:00
3:53 PM,-0.4,-7.6,72,29.93,7.0,West,11.5,18.4,N/A,,Scattered Clouds,280,2013-01-12 21:53:00
4:15 PM,-0.4,-7.6,72,29.93,7.0,WNW,15.0,19.6,N/A,,Mostly Cloudy,290,2013-01-12 22:15:00
4:35 PM,-0.4,-7.6,72,29.94,4.0,NW,12.7,17.3,N/A,,Haze,310,2013-01-12 22:35:00
4:53 PM,-2.2,-7.6,78,29.95,10.0,WNW,13.8,19.6,N/A,,Scattered Clouds,300,2013-01-12 22:53:00
5:15 PM,-2.2,-9.4,71,29.95,10.0,NW,16.1,19.6,N/A,,Clear,310,2013-01-12 23:15:00
5:35 PM,-2.2,-9.4,71,29.95,10.0,NW,17.3,21.9,N/A,,Clear,310,2013-01-12 23:35:00
5:53 PM,-4.0,-9.4,78,29.96,10.0,WNW,11.5,-,N/A,,Clear,300,2013-01-12 23:53:00
6:15 PM,-4.0,-9.4,78,29.97,10.0,NW,11.5,-,N/A,,Clear,310,2013-01-13 00:15:00
6:35 PM,-4.0,-9.4,78,29.97,10.0,NW,12.7,-,N/A,,Clear,310,2013-01-13 00:35:00
6:53 PM,-4.0,-9.4,78,29.97,10.0,NW,11.5,-,N/A,,Clear,310,2013-01-13 00:53:00
7:15 PM,-4.0,-9.4,78,29.97,10.0,WNW,10.4,-,N/A,,Clear,300,2013-01-13 01:15:00
7:35 PM,-5.8,-9.4,84,29.99,10.0,WNW,9.2,-,N/A,,Clear,300,2013-01-13 01:35:00
7:53 PM,-5.8,-9.4,84,30.00,10.0,West,8.1,-,N/A,,Scattered Clouds,280,2013-01-13 01:53:00
8:15 PM,-5.8,-9.4,84,30.02,10.0,WNW,6.9,-,N/A,,Scattered Clouds,290,2013-01-13 02:15:00
8:35 PM,-5.8,-9.4,84,30.03,10.0,WNW,9.2,-,N/A,,Mostly Cloudy,300,2013-01-13 02:35:00
8:53 PM,-5.8,-9.4,84,30.04,7.0,WNW,8.1,-,N/A,,Overcast,290,2013-01-13 02:53:00
9:14 PM,-5.8,-9.4,84,30.04,3.0,WNW,9.2,-,N/A,Snow,Light Snow,300,2013-01-13 03:14:00
9:35 PM,-5.8,-9.4,84,30.05,4.0,WNW,5.8,-,N/A,Snow,Light Snow,300,2013-01-13 03:35:00
9:53 PM,-5.8,-9.4,84,30.05,7.0,WNW,11.5,16.1,N/A,Snow,Light Snow,300,2013-01-13 03:53:00
10:15 PM,-5.8,-11.2,77,30.05,7.0,WNW,9.2,-,N/A,,Overcast,300,2013-01-13 04:15:00
10:35 PM,-5.8,-11.2,77,30.05,10.0,NW,11.5,-,N/A,,Mostly Cloudy,310,2013-01-13 04:35:00
10:53 PM,-5.8,-11.2,77,30.06,10.0,NW,11.5,-,N/A,,Mostly Cloudy,310,2013-01-13 04:53:00
10:58 PM,-5.8,-11.2,77,30.05,10.0,NW,11.5,-,N/A,,Mostly Cloudy,310,2013-01-13 04:58:00
11:21 PM,-5.8,-11.2,77,30.05,7.0,NW,11.5,-,N/A,,Overcast,320,2013-01-13 05:21:00